THOR ABLESTAR DEB, 48814

Orbit data source: Space-Track

THOR ABLESTAR DEB, 48814 is space debris in LEO originally from a launch on Thu, 29 Jun 1961 UTC launched from the Air Force Eastern Test Range (AFETR). Debris objects in space refer to the collection of defunct objects orbiting the Earth. Examples of debris include non-operational satellites, rocket bodies, and fragments generated from explosions, collisions, or faulty payload assembly.

Loading next visibility...
Identifier
48814, 1961-015MS
Orbit
LEO
Country
Flag of USUS
Related business
Manufacturer
Unknown
Mission
Spacecraft
Bus & Motor
Unknown
Mass
Unknown
Launch date (UTC)
1961-06-29 (65 years ago)
Launch vehicle
Unknown
Launch site
Air Force Eastern Test Range (AFETR)
Object type
Payload
Rocket body
Debris
Shape & HBR
Unknown shape, 0.1 m
Radar Cross Section
Medium (>0.1 m² and <1 m²)

Expand to show TLE details & history
Last TLE update: 1 day ago

TLE from 1 day ago
0 THOR ABLESTAR DEB
1 48814U 61015MS  26206.21121413  .00002974  00000-0  21534-2 0  9998
2 48814  65.9030 136.9965 0016246 144.5382 215.6776 13.97881886640884
Epoch: 2026-07-25T05:04Z
TLE epoch observation values (Epoch: 2026-07-25T05:04:08.900Z)
Latitude
-0.00008°
Longitude
118.03263°
Altitude
912.766 km
Speed
7.391 km/s
True Right ascension
09h 07m 59s
True Declination
0° 00' 00"
Sunlit
Object was in daylight at epoch
Visualization orbit readout
Latitude
Unknown
Longitude
Unknown
Altitude
Unknown
Speed
Unknown
Apparent Right ascension
Unknown
Apparent Declination
Unknown
Sunlit
N/A
Visualization observer readout
Local Sidereal Time
19:16:49
Azimuth
Unknown
Elevation
Unknown
Doppler factor
Unknown
Orbital elements
Apogee altitude
911.455 km
Perigee altitude
887.808 km
Semi-major axis
7,277.768 km
Eccentricity
0.00162
Inclination
65.903°
RAAN
136.9965°
Arg. of periapsis
144.5382°
True anomaly
215.5692°
Mean anomaly
215.6776°
Eccentric anomaly
215.62338°
Mean motion
3.49579 °/min
Orbital period
102.98 mins
BSTAR
0.0021534

Documentation

Showing up to 5 results
|